"2009-04-19 00:00:30",812487,3.923,48.94,3.956,0.671,3.837,101.4208,2.925,3.988,94.1,0,109.8,13.51,3.69,10.9
"2009-04-19 00:01:00",812488,4.809,50.53,5.592,1.188,4.89,101.4289,2.945,4.061,94.2,0,109.8,13.52,3.71,12.5
"2009-04-19 00:01:30",812489,4.873,47.7,4.967,1.169,4.674,101.4318,2.953,4.027,94.2,0,109.8,13.52,3.72,9.7
"2009-04-19 00:02:00",812490,7.658,56.33,4.889,0.404,8.76,101.438,2.969,4.227,94.4,0,109.7,13.52,3.73,18.3
"2009-04-19 00:02:30",812491,7.533,53.66,3.951,0.673,8.66,101.4457,2.988,4.252,94.5,0,109.8,13.52,3.75,15.7
"2009-04-19 00:03:00",812492,7.745,51.64,4.551,0.587,8.75,101.4395,2.972,4.221,94.5,0,109.7,13.52,3.73,13.6
"2009-04-19 00:03:30",812493,7.9,52.62,4.628,0.892,7.727,101.4361,2.964,4.186,94.4,0,109.8,13.52,3.73,14.6
"2009-04-19 00:04:00",812494,7.611,50.8,6.813,1.262,6.802,101.4338,2.958,4.142,94.3,0,109.8,13.52,3.72,12.8
"2009-04-19 00:04:30",812495,6.732,45.95,3.96,0.731,4.794,101.4313,2.951,4.084,94.3,0,109.8,13.52,3.71,8.0
"2009-04-19 00:05:00",812496,7.984,51.11,4.656,1.189,7.398,101.4273,2.941,4.175,94.4,0,109.8,13.52,3.70,13.1
"2009-04-19 00:05:30",812497,8.61,51.92,5.616,0.617,8.92,101.4256,2.937,4.239,94.4,0,109.8,13.52,3.70,13.9
"2009-04-19 00:06:00",812498,8.63,51.1,3.761,0.841,8.67,101.4234,2.931,4.26,94.4,0,109.8,13.52,3.69,13.1
"2009-04-19 00:06:30",812499,8.65,49.98,4.028,0.716,8.54,101.4197,2.922,4.238,94.4,0,109.8,13.51,3.68,12.0
"2009-04-19 00:07:00",812500,7.796,44.55,5.689,0.978,7.357,101.4174,2.916,4.197,94.4,0,109.8,13.51,3.68,6.5
"2009-04-19 00:07:30",812501,7.206,41.7,6.147,1.263,7.171,101.4169,2.915,4.162,94.3,0,109.8,13.51,3.68,3.7
"2009-04-19 00:08:00",812502,7.403,40.38,6.081,1.186,5.795,101.4171,2.915,4.04,94.2,0,109.8,13.51,3.68,2.4
"2009-04-19 00:08:30",812503,7.91,44.05,5.802,1.151,7.186,101.4171,2.915,4.158,94.3,0,109.8,13.51,3.68,6.0
"2009-04-19 00:09:00",812504,8.71,47.77,3.295,0.713,8.61,101.4174,2.916,4.168,94.2,0,109.7,13.51,3.68,9.8
"2009-04-19 00:09:30",812505,9.12,47.58,4.921,0.528,8.88,101.4123,2.903,4.181,94.3,0,109.8,13.51,3.67,9.6
"2009-04-19 00:10:00",812506,8.84,47.94,3.416,0.645,8.59,101.403,2.879,4.196,94.2,0,109.8,13.51,3.64,9.9
"2009-04-19 00:10:30",812507,8.35,49.69,5.521,1.124,7.622,101.4022,2.877,4.115,94.1,0,109.8,13.51,3.64,11.7
"2009-04-19 00:11:00",812508,7.613,46.31,6.72,1.179,7.218,101.4024,2.878,4.036,94,0,109.7,13.51,3.64,8.3
"2009-04-19 00:11:30",812509,7.024,44.71,6.321,1.42,5.545,101.4036,2.881,4.029,94,0,109.8,13.51,3.64,6.7
"2009-04-19 00:12:00",812510,7.719,51.69,6.626,1.021,7.002,101.4061,2.887,4.063,94,0,109.8,13.51,3.65,13.7
"2009-04-19 00:12:30",812511,7.324,52.25,5.284,1.056,8.05,101.4152,2.91,4.146,94.1,0,109.8,13.52,3.67,14.2
"2009-04-19 00:13:00",812512,6.993,49.53,6.941,1.094,7.77,101.418,2.917,4.168,94.1,0,109.8,13.52,3.68,11.5
"2009-04-19 00:13:30",812513,7.003,51.07,6.543,1.25,7.351,101.4194,2.921,4.109,94.1,0,109.8,13.52,3.68,13.1
"2009-04-19 00:14:00",812514,8.13,52.55,5.956,0.991,7.446,101.4203,2.923,4.085,94.1,0,109.8,13.52,3.69,14.5
"2009-04-19 00:14:30",812515,7.167,50.37,6.253,1.266,6.329,101.4192,2.92,4.03,94,0,109.8,13.52,3.68,12.4
"2009-04-19 00:15:00",812516,7.677,50.48,6.834,1.206,6.621,101.4203,2.923,4.129,94.1,0,109.8,13.52,3.69,12.5
"2009-04-19 00:15:30",812517,8.7,54.46,5.217,0.705,8.3,101.4214,2.926,4.133,94.2,0,109.8,13.52,3.69,16.5
"2009-04-19 00:16:00",812518,8.12,60.73,5.087,0.958,8.45,101.4226,2.929,4.215,94.2,0,109.8,13.52,3.69,22.7
"2009-04-19 00:16:30",812519,7.638,55.05,7.43,0.955,7.784,101.4243,2.934,4.153,94.2,0,109.8,13.52,3.70,17.0
"2009-04-19 00:17:00",812520,8.17,52.13,4.781,1.011,8.1,101.424,2.933,4.154,94.2,0,109.8,13.52,3.70,14.1
"2009-04-19 00:17:30",812521,6.964,43.75,4.658,1.007,5.837,101.4232,2.931,4.088,94.1,0,109.7,13.52,3.69,5.8
"2009-04-19 00:18:00",812522,6.022,41.5,5.364,1.003,6.029,101.4254,2.936,4.139,94.2,0,109.8,13.52,3.70,3.5
"2009-04-19 00:18:30",812523,6.803,46.54,4.753,0.848,8.2,101.4283,2.944,4.212,94.2,0,109.8,13.52,3.71,8.5
"2009-04-19 00:19:00",812524,6.734,49.44,6.265,1.25,7.756,101.4353,2.962,4.178,94.2,0,109.8,13.52,3.72,11.4
"2009-04-19 00:19:30",812525,7.347,57.1,5.912,1.05,7.828,101.4387,2.97,4.18,94.2,0,109.8,13.52,3.73,19.1
"2009-04-19 00:20:00",812526,6.147,42.76,5.129,1.139,5.829,101.437,2.966,4.134,94.2,0,109.8,13.52,3.73,4.8
"2009-04-19 00:20:30",812527,7.197,60.69,6.781,1.058,7.457,101.4322,2.954,4.168,94.2,0,109.8,13.52,3.72,22.7
"2009-04-19 00:21:00",812528,5.992,60.67,6.478,1.1,6.607,101.4311,2.951,4.084,94.1,0,109.8,13.52,3.71,22.7
"2009-04-19 00:21:30",812529,6.998,52.87,7.223,1.397,7.188,101.4362,2.964,4.156,94.2,0,109.8,13.52,3.73,14.9
"2009-04-19 00:22:00",812530,6.921,55.6,6.444,1.181,7.493,101.4382,2.969,4.189,94.2,0,109.8,13.52,3.73,17.6
"2009-04-19 00:22:30",812531,7.604,49.92,5.23,0.474,8.73,101.4402,2.974,4.208,94.2,0,109.8,13.52,3.74,11.9
"2009-04-19 00:23:00",812532,5.987,41.43,5.778,1.037,6.337,101.4421,2.979,4.223,94.2,0,109.8,13.52,3.74,3.4
"2009-04-19 00:23:30",812533,6.45,47.09,5.801,1.264,7.296,101.4421,2.979,4.139,94.1,0,109.8,13.51,3.74,9.1
"2009-04-19 00:24:00",812534,5.162,43.43,5.88,1.114,4.908,101.4427,2.981,4.004,94,0,109.8,13.51,3.74,5.4
"2009-04-19 00:24:30",812535,6.784,54.46,5.439,1.172,7.271,101.4447,2.986,4.199,94.2,0,109.8,13.51,3.75,16.5
"2009-04-19 00:25:00",812536,7.989,53.28,6.491,1.22,7.468,101.4444,2.985,4.199,94.2,0,109.8,13.51,3.75,15.3
"2009-04-19 00:25:30",812537,8.38,58.02,4.954,1.043,8.57,101.4421,2.979,4.238,94.2,0,109.7,13.51,3.74,20.0
"2009-04-19 00:26:00",812538,8.3,56.25,4.186,0.487,8.66,101.4404,2.975,4.261,94.2,0,109.8,13.51,3.74,18.2
"2009-04-19 00:26:30",812539,8.35,52.64,4.044,0.835,7.721,101.4368,2.965,4.193,94.1,0,109.8,13.51,3.73,14.6
"2009-04-19 00:27:00",812540,8.26,50.32,5.395,1.145,7.131,101.4311,2.951,4.204,94.1,0,109.7,13.51,3.71,12.3
"2009-04-19 00:27:30",812541,7.998,47.31,6.125,1.195,5.956,101.4257,2.937,4.085,93.9,0,109.8,13.51,3.70,9.3
"2009-04-19 00:28:00",812542,8.24,52.03,7.054,1.215,7.42,101.4252,2.936,4.165,94,0,109.8,13.51,3.70,14.0
"2009-04-19 00:28:30",812543,8.45,57.48,3.965,0.657,8.91,101.4252,2.936,4.213,94,0,109.8,13.52,3.70,19.5
"2009-04-19 00:29:00",812544,8.2,55.84,4.983,0.712,8.19,101.4252,2.936,4.141,93.9,0,109.7,13.52,3.70,17.8
"2009-04-19 00:29:30",812545,7.521,56.98,5.561,1.134,7.471,101.4252,2.936,4.153,93.9,0,109.8,13.52,3.70,19.0
"2009-04-19 00:30:00",812546,8.17,50.73,5.822,1.125,7.391,101.4252,2.936,4.147,93.9,0,109.8,13.52,3.70,12.7
"2009-04-19 00:30:30",812547,7.845,57.32,5.689,1.191,7.683,101.4252,2.936,4.115,93.8,0,109.7,13.52,3.70,19.3
"2009-04-19 00:31:00",812548,8.22,53.12,7.479,1.003,7.932,101.4255,2.936,4.168,93.9,0,109.8,13.52,3.70,15.1
"2009-04-19 00:31:30",812549,8.03,55.11,4.595,1.147,8.01,101.4274,2.942,4.203,93.9,0,109.8,13.52,3.70,17.1
"2009-04-19 00:32:00",812550,7.914,55.37,5.159,1.019,8.53,101.4263,2.939,4.207,93.9,0,109.8,13.52,3.70,17.4
"2009-04-19 00:32:30",812551,7.764,50.19,5.453,1.164,7.841,101.4288,2.945,4.21,93.9,0,109.8,13.52,3.71,12.2
"2009-04-19 00:33:00",812552,8.88,51.93,5.536,0.646,8.1,101.4283,2.944,4.163,93.8,0,109.7,13.52,3.71,13.9
"2009-04-19 00:33:30",812553,8.1,49.6,7.28,1.31,6.718,101.4283,2.944,4.174,93.9,0,109.7,13.52,3.71,11.6
"2009-04-19 00:34:00",812554,8.65,51.13,6.096,1.057,8.12,101.43,2.948,4.217,93.9,0,109.7,13.52,3.71,13.1
"2009-04-19 00:34:30",812555,8.74,54.32,4.648,0.917,8.75,101.4288,2.945,4.227,93.9,0,109.7,13.52,3.71,16.3
"2009-04-19 00:35:00",812556,8.26,53.37,5.591,1.097,8.02,101.43,2.948,4.189,93.8,0,109.7,13.52,3.71,15.4
"2009-04-19 00:35:30",812557,8.87,54.54,4.534,1.017,7.926,101.428,2.943,4.192,93.9,0,109.7,13.52,3.71,16.5
"2009-04-19 00:36:00",812558,9.28,52.66,5.672,0.695,8.25,101.43,2.948,4.239,93.9,0,109.8,13.52,3.71,14.7
"2009-04-19 00:36:30",812559,8.95,56.35,4.67,0.743,8.35,101.4328,2.955,4.246,93.9,0,109.7,13.52,3.72,18.3
"2009-04-19 00:37:00",812560,9.12,52.98,4.389,0.367,8.44,101.4317,2.952,4.242,93.8,0,109.7,13.52,3.71,15.0
"2009-04-19 00:37:30",812561,9.03,52.33,1.936,0.84,8.39,101.4314,2.952,4.218,93.8,0,109.8,13.52,3.71,14.3
"2009-04-19 00:38:00",812562,9.29,51.27,3.365,0.548,8.55,101.4339,2.958,4.256,93.8,0,109.8,13.52,3.72,13.3
"2009-04-19 00:38:30",812563,9.04,48.96,3.396,0.807,8.33,101.4328,2.955,4.238,93.8,0,109.8,13.52,3.72,11.0
"2009-04-19 00:39:00",812564,8.5,53.77,3.946,0.766,8.24,101.4297,2.947,4.251,93.8,0,109.7,13.52,3.71,15.8
"2009-04-19 00:39:30",812565,9.04,50.91,3.975,0.763,8.16,101.4294,2.947,4.24,93.8,0,109.7,13.51,3.71,12.9
"2009-04-19 00:40:00",812566,9.25,51.59,3.669,0.564,8.24,101.43,2.948,4.239,93.8,0,109.7,13.51,3.71,13.6
"2009-04-19 00:40:30",812567,9.07,53.33,2.954,0.797,8.29,101.4342,2.959,4.233,93.8,0,109.7,13.51,3.72,15.3
"2009-04-19 00:41:00",812568,9.43,50.99,2.71,0.651,8.21,101.4331,2.956,4.238,93.8,0,109.7,13.51,3.72,13.0
"2009-04-19 00:41:30",812569,9.47,50.76,2.806,0.77,8.33,101.4334,2.957,4.246,93.8,0,109.7,13.51,3.72,12.8
"2009-04-19 00:42:00",812570,9.6,50.78,3.125,0.836,8.47,101.4328,2.955,4.252,93.8,0,109.7,13.51,3.72,12.8
"2009-04-19 00:42:30",812571,9.36,49.79,2.587,0.793,8.54,101.4308,2.95,4.235,93.7,0,109.7,13.51,3.71,11.8
"2009-04-19 00:43:00",812572,9.49,48.84,3.089,0.63,8.43,101.4325,2.955,4.234,93.7,0,109.7,13.51,3.72,10.8
"2009-04-19 00:43:30",812573,9.33,49.06,3.893,0.717,8.54,101.4365,2.965,4.244,93.7,0,109.7,13.51,3.73,11.1
"2009-04-19 00:44:00",812574,9.12,47.75,3.64,0.982,8.54,101.4413,2.977,4.25,93.7,0,109.7,13.51,3.74,9.8
"2009-04-19 00:44:30",812575,8.6,48.6,4.303,0.897,8.54,101.4439,2.984,4.23,93.7,0,109.8,13.51,3.75,10.6
"2009-04-19 00:45:00",812576,9.31,47.79,2.361,0.783,8.37,101.4473,2.992,4.239,93.7,0,109.7,13.51,3.75,9.8
"2009-04-19 00:45:30",812577,8.47,45.67,2.674,0.792,8.41,101.4456,2.988,4.256,93.7,0,109.8,13.51,3.75,7.7
"2009-04-19 00:46:00",812578,8.56,45.4,2.884,0.809,8.24,101.4479,2.994,4.246,93.7,0,109.8,13.51,3.76,7.4
"2009-04-19 00:46:30",812579,8.95,46.04,3.519,0.836,8.31,101.4485,2.995,4.238,93.7,0,109.8,13.51,3.76,8.0
"2009-04-19 00:47:00",812580,8.52,44.89,2.852,0.739,8.15,101.4505,3,4.25,93.7,0,109.7,13.51,3.76,6.9
"2009-04-19 00:47:30",812581,7.965,43.48,2.953,0.884,8.22,101.4516,3.003,4.257,93.7,0,109.8,13.51,3.77,5.5
"2009-04-19 00:48:00",812582,8.06,43.91,3.284,0.933,7.965,101.4502,3,4.253,93.7,0,109.7,13.52,3.76,5.9
"2009-04-19 00:48:30",812583,8.93,46.46,2.667,0.891,8.09,101.453,3.007,4.253,93.7,0,109.7,13.51,3.77,8.5
"2009-04-19 00:49:00",812584,8.78,46.1,3.548,0.898,8.06,101.4525,3.005,4.259,93.6,0,109.7,13.51,3.77,8.1
"2009-04-19 00:49:30",812585,8.23,44.1,3.586,0.905,8.04,101.4533,3.008,4.276,93.6,0,109.7,13.51,3.77,6.1
"2009-04-19 00:50:00",812586,8.43,45.06,3.63,0.986,7.994,101.4565,3.016,4.238,93.6,0,109.7,13.51,3.78,7.1
"2009-04-19 00:50:30",812587,8.78,44.8,3.537,1.071,8.24,101.4559,3.014,4.251,93.6,0,109.7,13.51,3.78,6.8
"2009-04-19 00:51:00",812588,8.63,44.61,3.236,0.905,8.11,101.4587,3.021,4.259,93.6,0,109.7,13.52,3.78,6.6
"2009-04-19 00:51:30",812589,8.33,43.82,2.976,1.178,8.12,101.4602,3.025,4.269,93.6,0,109.7,13.51,3.79,5.8
"2009-04-19 00:52:00",812590,8.45,44.47,3.583,1.113,8.13,101.461,3.027,4.255,93.6,0,109.7,13.52,3.79,6.5
"2009-04-19 00:52:30",812591,8.12,43.43,3.651,0.801,8.28,101.4647,3.037,4.279,93.5,0,109.7,13.52,3.80,5.4
"2009-04-19 00:53:00",812592,7.748,42.36,3.242,0.885,8.09,101.465,3.037,4.278,93.5,0,109.7,13.51,3.80,4.4
"2009-04-19 00:53:30",812593,7.922,42.84,2.904,1.022,8.02,101.4701,3.05,4.28,93.5,0,109.7,13.52,3.81,4.8
"2009-04-19 00:54:00",812594,7.653,41.35,4.386,0.693,8.29,101.474,3.06,4.284,93.5,0,109.7,13.52,3.82,3.3
"2009-04-19 00:54:30",812595,6.694,36.13,6.271,1.162,6.106,101.4743,3.061,4.245,93.5,0,109.7,13.52,3.82,358.1
"2009-04-19 00:55:00",812596,7.243,38.02,6.234,0.984,6.991,101.4763,3.066,4.104,93.3,0,109.7,13.52,3.83,0.0
"2009-04-19 00:55:30",812597,7.481,38.39,6.425,1.313,7.085,101.4757,3.065,4.165,93.3,0,109.7,13.52,3.83,0.4
"2009-04-19 00:56:00",812598,8.02,42.27,3.01,0.866,9,101.4766,3.067,4.297,93.4,0,109.7,13.52,3.83,4.3
"2009-04-19 00:56:30",812599,7.733,39.56,4.831,0.701,9.34,101.476,3.066,4.314,93.4,0,109.7,13.52,3.83,1.6
"2009-04-19 00:57:00",812600,7.644,40.17,4.072,0.852,9.07,101.4772,3.069,4.305,93.3,0,109.7,13.52,3.83,2.2
"2009-04-19 00:57:30",812601,7.276,37.39,6.274,1.228,8.11,101.4757,3.065,4.269,93.3,0,109.7,13.52,3.83,359.4
"2009-04-19 00:58:00",812602,7.925,38.52,5.835,1.227,7.882,101.4772,3.069,4.242,93.2,0,109.7,13.52,3.83,0.5
"2009-04-19 00:58:30",812603,7.336,37.6,6.014,1.095,7.941,101.478,3.071,4.252,93.2,0,109.7,13.52,3.83,359.6
"2009-04-19 00:59:00",812604,7.299,38.91,5.024,1.05,8.1,101.4803,3.076,4.271,93.2,0,109.7,13.52,3.84,0.9
"2009-04-19 00:59:30",812605,7.055,37.52,5.658,1.101,7.85,101.4879,3.096,4.27,93.2,0,109.7,13.52,3.86,359.5
"2009-04-19 01:00:00",812606,7.396,37.87,5.985,0.925,8.25,101.491,3.104,4.276,93.2,0,109.7,13.52,3.87,359.9
"2009-04-19 01:00:30",812607,7.328,38.16,5.798,1.154,7.991,101.493,3.109,4.305,93.1,0,109.7,13.52,3.87,0.2
"2009-04-19 01:01:00",812608,7.007,36.61,6.034,1.158,7.387,101.493,3.109,4.262,93.1,0,109.7,13.52,3.87,358.6
"2009-04-19 01:01:30",812609,7.39,38.77,4.58,0.818,8.7,101.4941,3.112,4.293,93.1,0,109.7,13.52,3.87,0.8
"2009-04-19 01:02:00",812610,7.636,40.62,1.646,0.915,8.64,101.4961,3.117,4.322,93.1,0,109.7,13.53,3.88,2.6
"2009-04-19 01:02:30",812611,6.672,34.85,6.791,1.186,7.127,101.4973,3.12,4.294,93,0,109.8,13.53,3.88,356.9
"2009-04-19 01:03:00",812612,7.479,36.93,5.503,1.22,7.892,101.5015,3.131,4.31,93,0,109.7,13.53,3.89,358.9
"2009-04-19 01:03:30",812613,7.206,37.55,5.734,1.093,7.919,101.5015,3.131,4.253,92.9,0,109.7,13.53,3.89,359.5
"2009-04-19 01:04:00",812614,7.293,34.28,6.428,1.274,7.318,101.504,3.137,4.296,93,0,109.7,13.53,3.90,356.3
"2009-04-19 01:04:30",812615,8.01,39.3,4.697,1.186,8.72,101.5055,3.141,4.361,93,0,109.7,13.53,3.90,1.3
"2009-04-19 01:05:00",812616,7.525,40.36,3.468,0.628,8.93,101.5086,3.149,4.377,92.9,0,109.6,13.53,3.91,2.4
"2009-04-19 01:05:30",812617,7.818,38.22,5.196,1.194,8.44,101.5103,3.153,4.363,92.9,0,109.7,13.53,3.92,0.2
"2009-04-19 01:06:00",812618,8.09,37.32,5.972,1.32,8.05,101.5114,3.156,4.284,92.8,0,109.7,13.53,3.92,359.3
"2009-04-19 01:06:30",812619,6.88,31.99,6.187,1.388,5.653,101.5108,3.154,4.115,92.6,0,109.7,13.53,3.92,354.0
"2009-04-19 01:07:00",812620,6.87,35.08,7.12,1.3,7.329,101.5114,3.156,4.28,92.7,0,109.7,13.53,3.92,357.1
"2009-04-19 01:07:30",812621,7.831,39.11,4.828,0.724,8.75,101.5106,3.154,4.307,92.6,0,109.7,13.53,3.92,1.1
"2009-04-19 01:08:00",812622,7.726,37.08,5.447,1.273,8.29,101.5108,3.154,4.32,92.5,0,109.7,13.53,3.92,359.1
"2009-04-19 01:08:30",812623,8.49,37.89,5.273,1.122,8.75,101.5114,3.156,4.34,92.4,0,109.7,13.53,3.92,359.9
"2009-04-19 01:09:00",812624,7.982,37.58,5.623,0.821,8.78,101.5114,3.156,4.356,92.3,0,109.7,13.53,3.92,359.6
"2009-04-19 01:09:30",812625,8.1,37.29,3.759,0.78,8.87,101.5114,3.156,4.38,92.3,0,109.7,13.53,3.92,359.3
"2009-04-19 01:10:00",812626,7.705,38.17,2.966,0.701,8.58,101.5103,3.153,4.374,92.2,0,109.7,13.53,3.92,0.2
"2009-04-19 01:10:30",812627,8.06,39.89,3.547,0.694,8.43,101.5117,3.157,4.376,92.2,0,109.7,13.53,3.92,1.9
"2009-04-19 01:11:00",812628,8.34,41.21,4.077,0.881,8.31,101.5123,3.158,4.387,92.1,0,109.7,13.53,3.92,3.2
"2009-04-19 01:11:30",812629,7.54,39.06,4.049,0.833,8.03,101.512,3.157,4.396,92,0,109.7,13.52,3.92,1.1
"2009-04-19 01:12:00",812630,7.441,40.67,2.967,0.828,7.938,101.5126,3.159,4.386,91.9,0,109.7,13.52,3.92,2.7
"2009-04-19 01:12:30",812631,7.19,39.35,4.937,0.995,6.903,101.5111,3.155,4.281,91.7,0,109.7,13.52,3.92,1.3
"2009-04-19 01:13:00",812632,5.555,30.51,1.186,0.343,3.846,101.5126,3.159,4.107,91.5,0,109.7,13.55,3.92,352.5
"2009-04-19 01:13:30",812633,5.736,31.47,3.39,0.531,4.615,101.5154,3.166,4.248,91.6,0,109.7,13.53,3.93,353.5
"2009-04-19 01:14:00",812634,8.25,42.58,4.454,1.017,9.26,101.5213,3.181,4.4,91.7,0,109.7,13.53,3.94,4.6
"2009-04-19 01:14:30",812635,8.44,43.49,4.183,0.818,9.62,101.5273,3.196,4.427,91.7,0,109.7,13.53,3.96,5.5
"2009-04-19 01:15:00",812636,8.82,45.37,2.505,0.838,9.24,101.5292,3.201,4.419,91.7,0,109.7,13.53,3.96,7.4
"2009-04-19 01:15:30",812637,9.02,45.56,2.728,0.741,9.11,101.5295,3.202,4.43,91.8,0,109.7,13.52,3.97,7.6
"2009-04-19 01:16:00",812638,8.8,45.46,3.135,0.807,8.95,101.5315,3.207,4.444,91.8,0,109.7,13.52,3.97,7.5
"2009-04-19 01:16:30",812639,8.21,43.02,3.278,0.95,8.91,101.5338,3.213,4.464,91.9,0,109.7,13.52,3.98,5.0
"2009-04-19 01:17:00",812640,8.5,44.13,2.069,0.839,8.59,101.5329,3.211,4.454,91.9,0,109.7,13.53,3.97,6.1
"2009-04-19 01:17:30",812641,8.66,43.47,3.72,0.974,8.42,101.5361,3.219,4.46,91.9,0,109.7,13.53,3.98,5.5
"2009-04-19 01:18:00",812642,8.45,43.07,3.904,0.773,8.37,101.5327,3.21,4.464,91.9,0,109.7,13.53,3.97,5.1
"2009-04-19 01:18:30",812643,9.39,43.92,3.441,0.754,8.52,101.5344,3.215,4.457,91.9,0,109.7,13.53,3.98,5.9
"2009-04-19 01:19:00",812644,9.3,43.87,4.091,1.102,8.42,101.5319,3.208,4.458,91.9,0,109.7,13.53,3.97,5.9
"2009-04-19 01:19:30",812645,8.99,43.58,3.941,1.13,8.44,101.5248,3.19,4.466,91.8,0,109.7,13.53,3.95,5.6
"2009-04-19 01:20:00",812646,9.5,43.01,3.453,1.028,8.45,101.5197,3.177,4.458,91.8,0,109.7,13.53,3.94,5.0
"2009-04-19 01:20:30",812647,10.09,44.26,2.983,1.064,8.77,101.5169,3.17,4.452,91.7,0,109.7,13.53,3.93,6.3
"2009-04-19 01:21:00",812648,9.99,44.19,3.724,1.031,8.67,101.5189,3.175,4.425,91.6,0,109.7,13.53,3.94,6.2
"2009-04-19 01:21:30",812649,10.21,44.59,3.055,0.989,8.93,101.5183,3.173,4.453,91.6,0,109.7,13.53,3.94,6.6
"2009-04-19 01:22:00",812650,8.88,42.86,3.762,1.227,8.82,101.518,3.173,4.406,91.4,0,109.7,13.53,3.94,4.9
"2009-04-19 01:22:30",812651,8.24,40.9,3.326,0.85,8.97,101.5189,3.175,4.411,91.4,0,109.7,13.53,3.94,2.9
"2009-04-19 01:23:00",812652,9.37,42.29,3.3,0.751,8.67,101.5163,3.168,4.409,91.4,0,109.7,13.53,3.93,4.3
"2009-04-19 01:23:30",812653,9.14,40.64,3.734,0.83,8.78,101.5058,3.142,4.407,91.4,0,109.7,13.53,3.90,2.6
"2009-04-19 01:24:00",812654,8.96,41.6,2.114,0.994,8.76,101.5005,3.128,4.389,91.2,0,109.7,13.53,3.89,3.6
"2009-04-19 01:24:30",812655,9.16,42.39,3.893,0.865,8.94,101.4977,3.121,4.382,91,0,109.7,13.53,3.88,4.4
"2009-04-19 01:25:00",812656,9.1,41.4,3.86,0.699,8.86,101.4906,3.103,4.376,90.9,0,109.6,13.53,3.87,3.4
"2009-04-19 01:25:30",812657,8.8,41.54,3.235,0.848,8.73,101.4855,3.09,4.381,90.9,0,109.7,13.53,3.85,3.5
"2009-04-19 01:26:00",812658,9.31,41.67,3.239,0.929,8.74,101.4852,3.089,4.361,90.8,0,109.7,13.53,3.85,3.7
"2009-04-19 01:26:30",812659,9.76,42.99,3.817,1.022,8.97,101.4841,3.086,4.347,90.7,0,109.7,13.53,3.85,5.0
"2009-04-19 01:27:00",812660,8.72,40.6,3.6,0.69,8.87,101.4829,3.083,4.339,90.6,0,109.7,13.53,3.85,2.6
"2009-04-19 01:27:30",812661,8.86,39.47,3.194,0.848,8.87,101.4835,3.085,4.341,90.6,0,109.7,13.53,3.85,1.5
"2009-04-19 01:28:00",812662,9.63,40.39,2.89,1.119,8.79,101.4739,3.06,4.322,90.5,0,109.7,13.52,3.82,2.4
"2009-04-19 01:28:30",812663,8.93,40.21,2.652,0.902,8.99,101.4705,3.051,4.321,90.4,0,109.7,13.52,3.81,2.2
"2009-04-19 01:29:00",812664,9.18,40.29,2.77,0.805,8.77,101.4682,3.046,4.303,90.2,0,109.7,13.52,3.81,2.3
"2009-04-19 01:29:30",812665,9.2,39.99,3.582,0.885,8.82,101.4677,3.044,4.298,90.2,0,109.7,13.52,3.81,2.0
"2009-04-19 01:30:00",812666,9.06,39.87,2.999,0.886,8.87,101.4685,3.046,4.291,90.1,0,109.7,13.52,3.81,1.9
"2009-04-19 01:30:30",812667,9.2,40.15,2.911,0.874,8.96,101.4663,3.041,4.284,90.1,0,109.7,13.52,3.80,2.2
"2009-04-19 01:31:00",812668,9.65,38.21,3.364,0.502,8.85,101.4598,3.024,4.288,90,0,109.7,13.52,3.79,0.2
"2009-04-19 01:31:30",812669,9.89,40.66,2.742,0.856,8.78,101.4538,3.009,4.286,90,0,109.7,13.52,3.77,2.7
"2009-04-19 01:32:00",812670,9.73,40.03,3.238,0.961,8.74,101.4527,3.006,4.284,89.8,0,109.7,13.52,3.77,2.0
"2009-04-19 01:32:30",812671,9.74,38.58,2.923,0.8,8.86,101.4516,3.003,4.251,89.8,0,109.7,13.52,3.77,0.6
"2009-04-19 01:33:00",812672,10.1,37.02,3.588,0.659,8.82,101.4521,3.005,4.259,89.7,0,109.7,13.52,3.77,359.0
"2009-04-19 01:33:30",812673,9.93,38.46,3.397,0.771,8.86,101.4519,3.004,4.266,89.6,0,109.7,13.52,3.77,0.5
"2009-04-19 01:34:00",812674,9.85,37.72,3.097,0.777,8.73,101.4536,3.008,4.247,89.6,0,109.7,13.53,3.77,359.7
"2009-04-19 01:34:30",812675,10.35,36.21,3.236,0.845,8.92,101.4533,3.008,4.253,89.6,0,109.7,13.53,3.77,358.2
"2009-04-19 01:35:00",812676,10.47,36.4,3.232,0.779,8.83,101.4553,3.013,4.244,89.6,0,109.7,13.53,3.78,358.4
"2009-04-19 01:35:30",812677,10.31,36.11,3.021,0.789,8.86,101.4513,3.003,4.246,89.5,0,109.7,13.53,3.76,358.1
"2009-04-19 01:36:00",812678,11.09,34.89,3.125,0.838,8.92,101.4499,2.999,4.232,89.5,0,109.7,13.53,3.76,356.9
"2009-04-19 01:36:30",812679,11.56,34.48,3.524,0.722,9.24,101.4457,2.988,4.231,89.5,0,109.7,13.53,3.75,356.5
"2009-04-19 01:37:00",812680,11.93,34.48,3.198,0.695,9.19,101.4431,2.982,4.241,89.4,0,109.7,13.53,3.74,356.5
"2009-04-19 01:37:30",812681,11.53,34.66,3.562,0.676,9.26,101.4389,2.971,4.237,89.4,0,109.7,13.53,3.73,356.7
"2009-04-19 01:38:00",812682,11.08,34.71,2.736,0.892,9.27,101.4361,2.964,4.201,89.2,0,109.7,13.53,3.73,356.7
"2009-04-19 01:38:30",812683,11.14,34.44,2.738,0.741,9.31,101.4315,2.952,4.208,89,0,109.7,13.53,3.71,356.4
"2009-04-19 01:39:00",812684,11.28,35.01,2.695,0.625,9.29,101.431,2.951,4.215,88.8,0,109.6,13.53,3.71,357.0
"2009-04-19 01:39:30",812685,10.87,34.6,3.378,0.745,9.3,101.427,2.94,4.217,88.7,0,109.7,13.53,3.70,356.6
"2009-04-19 01:40:00",812686,10.7,34.71,3.434,0.67,9.26,101.4233,2.931,4.193,88.5,0,109.7,13.53,3.69,356.7
"2009-04-19 01:40:30",812687,10.51,35.52,3.434,0.875,9.35,101.4216,2.927,4.187,88.4,0,109.7,13.53,3.69,357.5
"2009-04-19 01:41:00",812688,10.64,35.4,2.099,0.712,9.14,101.4242,2.933,4.183,88.3,0,109.7,13.53,3.70,357.4
"2009-04-19 01:41:30",812689,10.4,34.87,3.171,0.783,9.1,101.4248,2.935,4.196,88.1,0,109.7,13.53,3.70,356.9
"2009-04-19 01:42:00",812690,10.81,34.28,3.287,0.725,9.14,101.4259,2.938,4.181,88,0,109.7,13.53,3.70,356.3
"2009-04-19 01:42:30",812691,10.99,33.48,3.225,0.683,9.26,101.4248,2.935,4.18,87.9,0,109.7,13.53,3.70,355.5
"2009-04-19 01:43:00",812692,10.63,33.89,2.72,0.63,9.22,101.4239,2.933,4.193,87.8,0,109.7,13.53,3.69,355.9
"2009-04-19 01:43:30",812693,10.25,34.95,3.154,0.655,9.13,101.4245,2.934,4.196,87.7,0,109.7,13.53,3.70,357.0
"2009-04-19 01:44:00",812694,10.24,35.23,2.681,0.843,9.05,101.4245,2.934,4.191,87.6,0,109.7,13.53,3.70,357.2
"2009-04-19 01:44:30",812695,10.43,34.36,2.839,0.896,9.18,101.4239,2.933,4.193,87.5,0,109.7,13.52,3.69,356.4
"2009-04-19 01:45:00",812696,10.78,33.97,2.92,0.685,9.04,101.4254,2.936,4.195,87.4,0,109.7,13.52,3.70,356.0
"2009-04-19 01:45:30",812697,11.02,33.32,3.196,0.648,9.03,101.4262,2.938,4.212,87.3,0,109.7,13.52,3.70,355.3
"2009-04-19 01:46:00",812698,11.11,32.44,3.561,0.781,9.08,101.4299,2.948,4.199,87.3,0,109.7,13.52,3.71,354.4
"2009-04-19 01:46:30",812699,11.33,32.55,3.52,0.689,9.25,101.4333,2.956,4.213,87.2,0,109.7,13.52,3.72,354.5
"2009-04-19 01:47:00",812700,10.98,35.02,2.969,0.616,9.08,101.4361,2.964,4.22,87.2,0,109.7,13.52,3.73,357.0
"2009-04-19 01:47:30",812701,10.57,35.08,3.53,0.706,9.1,101.4401,2.974,4.229,87.1,0,109.7,13.52,3.74,357.1
"2009-04-19 01:48:00",812702,10.13,36.62,2.885,0.779,9.04,101.4415,2.977,4.215,87,0,109.7,13.52,3.74,358.6
"2009-04-19 01:48:30",812703,10.24,36.37,3.623,0.748,9.2,101.4421,2.979,4.22,86.8,0,109.7,13.52,3.74,358.4
"2009-04-19 01:49:00",812704,10.45,36.97,1.993,0.766,9.02,101.4474,2.993,4.231,86.7,0,109.7,13.52,3.76,359.0
"2009-04-19 01:49:30",812705,10.79,35.56,2.425,0.832,9.07,101.4568,3.016,4.25,86.5,0,109.7,13.53,3.78,357.6
"2009-04-19 01:50:00",812706,11.14,34.88,2.777,0.807,9.26,101.4596,3.024,4.225,86.3,0,109.7,13.53,3.79,356.9
"2009-04-19 01:50:30",812707,11.02,35.99,2.787,0.809,9.45,101.4596,3.024,4.232,86.2,0,109.7,13.53,3.79,358.0
"2009-04-19 01:51:00",812708,11.13,36.89,2.822,0.69,9.28,101.4599,3.024,4.226,86,0,109.7,13.53,3.79,358.9
"2009-04-19 01:51:30",812709,11.21,35.94,4.027,0.731,9.48,101.4678,3.045,4.267,85.7,0,109.7,13.53,3.81,357.9
"2009-04-19 01:52:00",812710,10.76,36.88,2.86,0.781,9.37,101.4763,3.066,4.262,85.6,0,109.7,13.53,3.83,358.9
"2009-04-19 01:52:30",812711,10.72,37.3,3.274,0.79,9.49,101.4819,3.081,4.279,85.5,0,109.7,13.53,3.84,359.3